Regional Weather Roundup
Issued by NWS

Home | Current Version | Previous Version | Graphics & Text | Print | Product List | Glossary On
Versions: 1 2 3 4 5 6 7 8 9 10 11 12 13 14 15 16 17 18 19 20 21 22 23 24 25 26 27 28 29 30 31 32 33 34 35 36 37 38 39 40 41 42 43 44 45 46 47 48 49 50
000
ASUS45 KCYS 201210
RWRWY

WYOMING REGIONAL WEATHER ROUNDUP
NATIONAL WEATHER SERVICE CHEYENNE WY
600 AM MDT THU JUL 20 2017

NOTE:  "FAIR" INDICATES FEW OR NO CLOUDS BELOW 12,000 FEET
WITH NO SIGNIFICANT WEATHER AND/OR OBSTRUCTIONS TO VISIBILITY.

WYZ001-201300-
YELLOWSTONE NATIONAL PARK

CITY           SKY/WX    TMP DP  RH WIND       PRES   REMARKS
LK YELLOWSTONE   N/A     40  36  86 NW3       30.35R
6HR MIN TEMP:  40; 6HR MAX TEMP:  47;

W YELLOWSTONE  NOT AVBL

$$
WYZ002>013-054>058-071-098>099-201300-
NORTHERN WYOMING

CITY           SKY/WX    TMP DP  RH WIND       PRES   REMARKS
JACKSON        FAIR      46  39  76 N7        30.26R
CODY           FAIR      61  41  47 VRB3      30.09R
GREYBULL       FAIR      70  51  51 S7        30.00S
6HR MIN TEMP:  70; 6HR MAX TEMP:  81;

WORLAND        FAIR      66  53  63 W6        30.03R
6HR MIN TEMP:  65; 6HR MAX TEMP:  80;

SHERIDAN       FAIR      64  51  62 CALM      30.00F
6HR MIN TEMP:  60; 6HR MAX TEMP:  76;

BUFFALO        FAIR      65  52  62 S12       30.09S
6HR MIN TEMP:  65; 6HR MAX TEMP:  73;

GILLETTE       FAIR      70  55  59 S13       30.09R
6HR MIN TEMP:  70; 6HR MAX TEMP:  75;

HULETT         FAIR      68  55  64 S7        30.12S
NEWCASTLE      FAIR      68  54  60 S9        30.14R

$$
WYZ014>020-022>026-101>103-201300-
CENTRAL WYOMING

CITY           SKY/WX    TMP DP  RH WIND       PRES   REMARKS
BIG PINEY      FAIR      51  47  86 N9        30.31R
6HR MIN TEMP:  50; 6HR MAX TEMP:  65;

PINEDALE       FAIR      50  48  93 NW7       30.32R
DUBOIS         FAIR      54  41  62 W7        30.29R
LANDER         FAIR      64  53  67 W7        30.15R
6HR MIN TEMP:  63; 6HR MAX TEMP:  79;

RIVERTON       FAIR      63  56  78 W7        30.16R
6HR MIN TEMP:  62; 6HR MAX TEMP:  73;

CASPER         FAIR      61  53  75 CALM      30.18R
6HR MIN TEMP:  61; 6HR MAX TEMP:  72;

DOUGLAS        FAIR      67  56  67 SE8       30.18R
6HR MIN TEMP:  64; 6HR MAX TEMP:  73; 6HR PCP: TRACE;


$$
WYZ021-027>030-104>119-201300-
SOUTHERN WYOMING

CITY           SKY/WX    TMP DP  RH WIND       PRES   REMARKS
EVANSTON       MOCLDY    61  49  64 S6        30.30R
6HR MIN TEMP:  59; 6HR MAX TEMP:  66;

KEMMERER         N/A     54  46  76 N8        30.31R
FORT BRIDGER   FAIR      58  47  66 SW5       30.32R
ROCK SPRINGS   FAIR      60  49  66 SE5       30.28R
6HR MIN TEMP:  59; 6HR MAX TEMP:  67;

RAWLINS        FAIR      57  52  83 CALM      30.32R
6HR MIN TEMP:  56; 6HR MAX TEMP:  61;

SARATOGA       FAIR      59  52  77 S9        30.33R
LARAMIE        MOCLDY    58  52  80 S7        30.34S
6HR MIN TEMP:  57; 6HR MAX TEMP:  61;

CHEYENNE       MOCLDY    64  53  67 NW8       30.28R
6HR MIN TEMP:  63; 6HR MAX TEMP:  69;

TORRINGTON     CLOUDY    67  65  93 W3        30.15R
6HR MIN TEMP:  67; 6HR MAX TEMP:  68; 6HR PCP: TRACE;

PINE BLUFFS    PTSUNNY   61  61 100 CALM      30.24R

$$



USA.gov is the U.S. government's official web portal to all federal, state and local government web resources and services.